Regional Weather Roundup
Issued by NWS

Home | Current Version | Previous Version | Graphics & Text | Print | Product List | Glossary On
Versions: 1 2 3 4 5 6 7 8 9 10 11 12 13 14 15 16 17 18 19 20 21 22 23 24 25 26 27 28 29 30 31 32 33 34 35 36 37 38 39 40 41 42 43 44 45 46 47 48 49 50
000
ASUS43 KTOP 280408
RWRKS

WEATHER ROUNDUP FOR KANSAS
NATIONAL WEATHER SERVICE GOODLAND KS
1100 PM CDT WED APR 27 2016

NOTE:  "FAIR" INDICATES FEW OR NO CLOUDS BELOW 12,000 FEET WITH NO
SIGNIFICANT WEATHER AND/OR OBSTRUCTIONS TO VISIBILITY.

KSZ001>006-013>018-027>032-041>047-280500-
NORTHWEST KANSAS

CITY           SKY/WX    TMP DP  RH WIND       PRES   REMARKS
GOODLAND       CLEAR     40  31  70 N13       29.85R WCI  32
HAYS           CLEAR     43  30  61 W9        29.84R
HILL CITY      CLEAR     44  37  76 NW9       29.84R
RUSSELL        CLEAR     45  37  73 W10       29.81R
$$

KSZ061>065-074>080-084>089-280500-
SOUTHWEST KANSAS

CITY           SKY/WX    TMP DP  RH WIND       PRES   REMARKS
DODGE CITY     CLEAR     45  37  73 NE9       29.83R
ELKHART          N/A     53  35  50 E6          N/A
GARDEN CITY    CLEAR     47  35  63 NE12      29.82R
GREAT BEND     CLEAR     45  34  65 NW8       29.83R
LIBERAL        CLEAR     54  32  43 E6        29.83R
PRATT          PTCLDY    45  38  78 CALM      29.83R
$$

KSZ066>073-081>083-090>101-280500-
SOUTHEAST KANSAS

CITY           SKY/WX    TMP DP  RH WIND       PRES   REMARKS
CHANUTE        CLEAR     55  46  71 W8        29.77R
COFFEYVILLE    CLEAR     58  48  69 NW6       29.78R
HUTCHINSON     CLEAR     48  38  68 NW8       29.81R
MEDICINE LODGE   N/A     48  41  76 N5        29.82R
NEWTON         CLEAR     50  36  57 W12G17    29.82R
PARSONS        CLEAR     54  50  86 CALM      29.78R
WICHITA INTL   CLEAR     54  40  59 NW10      29.81R
WICHITA JABRA  CLEAR     54  40  59 W10       29.80R
WICHITA MCCONL CLEAR     55  42  60 NW8       29.80R
WINFIELD       CLEAR     52  45  77 NW5       29.82R
$$

KSZ007>012-019>026-033>040-048>060-102>105-280500-
NORTHEAST KANSAS

CITY           SKY/WX    TMP DP  RH WIND       PRES   REMARKS
CONCORDIA      CLEAR     42  35  76 W17       29.74R
EMPORIA        CLEAR     53  43  68 W12       29.76R
LAWRENCE       CLEAR     53  43  68 W16G23    29.72R
MANHATTAN      CLEAR     49  36  61 W10G18    29.74R
MARYSVILLE     CLOUDY    45  39  81 W14G24    29.67R
OLATHE IND     CLEAR     53  47  79 SW8       29.72R
OLATHE EXE     CLEAR     52  47  83 SW3       29.71S
SALINA         CLEAR     47  40  76 NW12      29.79R
TOPEKA BILLARD CLEAR     52  41  66 W13G18    29.72R
TOPEKA FORBES  CLEAR     52  42  69 W9        29.73R
$$




USA.gov is the U.S. government's official web portal to all federal, state and local government web resources and services.